• Join FlightAware (Why Join?)
  • Login
  • US Flag 
09:09PM EST


 

Airport Tracker/Info


-or-


 

Live Flight TrackerFlight Track Log ✈ SWA1903 ✈ 14-May-2013 ✈ KBWI - KDTW

Flight Track Log - Related Links

Times and Time Zones

All times are in EDT time to prevent confusion due to time zone crossing. See the SWA1903 flight status page for this flight to view local times or setup timezone preferences in your user account.

Time Position Orientation Groundspeed Altitude Reporting Facility
EDT Latitude Longitude Course Direction KTS MPH feet Rate Location/Type
07:43AM 39.2003 -76.8906 279° West 237 273 8,600  Level Washington Center
07:44AM 39.2139 -76.9847 281° West 259 298 12,000 3,124 Climbing Washington Center
07:45AM 39.2122 -77.1050 269° West 300 345 14,900 3,407 Climbing Washington Center
07:46AM 39.2444 -77.2131 291° West 318 366 18,700 3,661 Climbing Washington Center
07:47AM 39.2908 -77.3106 302° West 327 376 22,100 3,124 Climbing Washington Center
07:48AM 39.3394 -77.4189 300° West 333 383 25,000 2,628 Climbing Washington Center
07:49AM 39.3917 -77.5331 301° West 356 410 27,400 2,380 Climbing Washington Center
07:50AM 39.4439 -77.6500 300° West 368 423 29,800 2,924 Climbing Washington Center
07:51AM 39.4961 -77.7619 301° West 374 430 33,200 2,118 Climbing Washington Center
07:52AM 39.5422 -77.8736 298° West 363 418 34,000 397 Climbing Washington Center
07:53AM 39.5772 -77.9906 291° West 351 404 34,000  Level Washington Center
07:54AM 39.6125 -78.1100 291° West 351 404 34,000  Level Washington Center
07:54AM 39.6286 -78.1572 294° West 355 409 34,000  Level Cleveland Center
07:55AM 39.6664 -78.2772 292° West 355 409 34,000  Level Cleveland Center
07:56AM 39.7022 -78.4031 290° West 360 414 34,000  Level Cleveland Center
07:57AM 39.7378 -78.5233 291° West 367 422 34,000  Level Cleveland Center
07:58AM 39.7756 -78.6492 291° West 367 422 34,000  Level Cleveland Center
07:59AM 39.8069 -78.7833 287° West 361 415 34,000  Level Cleveland Center
08:00AM 39.8442 -78.9067 291° West 361 415 34,000  Level Cleveland Center
08:01AM 39.8917 -79.0192 299° West 361 415 34,000  Level Cleveland Center
08:02AM 39.9453 -79.1317 302° West 361 415 34,000  Level Cleveland Center
08:03AM 39.9947 -79.2417 300° West 361 415 34,000  Level Cleveland Center
08:04AM 40.0439 -79.3519 300° West 356 410 34,000  Level Cleveland Center
08:05AM 40.0972 -79.4622 302° West 356 410 34,000  Level Cleveland Center
08:06AM 40.1461 -79.5728 300° West 356 410 34,000  Level Cleveland Center
08:07AM 40.1969 -79.6808 302° West 356 410 34,000  Level Cleveland Center
08:08AM 40.2478 -79.7917 301° West 356 410 34,000  Level Cleveland Center
08:09AM 40.2986 -79.9053 300° West 356 410 34,000  Level Cleveland Center
08:10AM 40.3408 -80.0056 299° West 356 410 34,000  Level Cleveland Center
08:11AM 40.3914 -80.1169 301° West 356 410 34,000  Level Cleveland Center
08:12AM 40.4419 -80.2283 301° West 356 410 34,000 -550 Level Cleveland Center
08:13AM 40.4922 -80.3400 301° West 356 410 32,900 -1,900 Descending Cleveland Center
08:14AM 40.5425 -80.4436 303° West 351 404 30,200 -1,450 Descending Cleveland Center
08:15AM 40.5925 -80.5558 300° West 351 404 30,000 -100 Descending Cleveland Center
08:16AM 40.6444 -80.6761 300° West 356 410 30,000  Level Cleveland Center
08:17AM 40.6903 -80.7719 302° West 356 410 30,000  Level Cleveland Center
08:18AM 40.7442 -80.8817 303° West 356 410 30,000  Level Cleveland Center
08:19AM 40.7981 -80.9917 303° West 356 410 30,000 -250 Level Cleveland Center
08:20AM 40.8539 -81.1131 301° West 356 410 29,500 -800 Descending Cleveland Center
08:21AM 40.9056 -81.2206 302° West 351 404 28,400 -1,050 Descending Cleveland Center
08:22AM 40.9569 -81.3256 303° West 341 392 27,400 -1,000 Descending Cleveland Center
08:23AM 41.0064 -81.4306 302° West 336 387 26,400 -900 Descending Cleveland Center
08:24AM 41.0514 -81.5247 302° West 341 392 25,600 -900 Descending Cleveland Center
08:25AM 41.1047 -81.6331 303° West 341 392 24,600 -800 Descending Cleveland Center
08:26AM 41.1600 -81.7358 306° West 341 392 24,000 -300 Descending Cleveland Center
08:27AM 41.2067 -81.8444 300° West 341 392 24,000  Level Cleveland Center
08:28AM 41.2578 -81.9475 303° West 341 392 24,000 -300 Level Cleveland Center
08:29AM 41.3086 -82.0508 303° West 341 392 23,400 -900 Descending Cleveland Center
08:30AM 41.3611 -82.1711 300° West 336 387 22,200 -1,100 Descending Cleveland Center
08:31AM 41.4181 -82.2639 309° West 336 387 21,200 -1,000 Descending Cleveland Center
08:32AM 41.4750 -82.3569 309° West 336 387 20,200 -1,000 Descending Cleveland Center
08:33AM 41.5319 -82.4528 308° West 331 381 19,200 -1,115 Descending Cleveland Center
08:34AM 41.5847 -82.5375 310° West 326 375 18,100 -1,737 Descending Cleveland Center
08:35AM 41.6372 -82.6308 307° West 311 358 15,900 -2,276 Descending Cleveland Center
08:36AM 41.6858 -82.7131 308° West 297 342 13,700 -2,017 Descending Cleveland Center
08:37AM 41.7364 -82.7925 310° West 296 341 12,000 -836 Descending Cleveland Center
08:38AM 41.8014 -82.8756 316° Northwest 302 348 12,000  Level Cleveland Center
08:39AM 41.8769 -82.9647 319° Northwest 302 348 12,000  Level Cleveland Center
08:40AM 41.9339 -83.0311 319° Northwest 299 344 12,000  Level Cleveland Center
08:41AM 41.9967 -83.1089 317° Northwest 297 342 12,000  Level Cleveland Center
08:42AM 42.0536 -83.1783 318° Northwest 293 337 12,000  Level Cleveland Center
08:43AM 42.1042 -83.2392 318° Northwest 272 313 12,000 -581 Level Cleveland Center
08:44AM 42.1694 -83.2194 13° North 234 269 10,800 -1,099 Descending Cleveland Center
08:45AM 42.2328 -83.1772 26° Northeast 231 266 9,600 -1,131 Descending Cleveland Center
08:46AM 42.2878 -83.1431 25° Northeast 229 264 8,500 -1,255 Descending Cleveland Center
08:47AM 42.3408 -83.1058 27° Northeast 252 290 7,300 -1,034 Descending Cleveland Center
08:48AM 42.3772 -83.1494 318° Northwest 152 175 6,500 -1,279 Descending Cleveland Center
08:49AM 42.3572 -83.2047 244° Southwest 181 208 4,700 -1,433 Descending Cleveland Center
08:51AM 42.3186 -83.2622 228° Southwest 158 182 3,300 -1,230 Descending Cleveland Center
08:51AM 42.2844 -83.2861 207° Southwest 155 178 2,200 -983 Descending Cleveland Center
08:52AM 42.2528 -83.3128 212° Southwest 114 131 1,400 -656 Descending Cleveland Center
08:53AM 42.2208 -83.3339 206° Southwest 132 152 800 -590 Descending Cleveland Center